Hourly Weather Rudniki

Today, 8 May, Saturday

Time Temperature Precipitation Wind Pressure Humidity
00:00 +1°C° 0 mm 3 mps 742 mmHg 90%
01:00 +1°C° 0 mm 3 mps 742 mmHg 92%
02:00 +1°C° 0 mm 3 mps 742 mmHg 94%
03:00 0°C° 0 mm 4 mps 743 mmHg 92%
04:00 0°C° 0 mm 4 mps 744 mmHg 91%
05:00 0°C° 0 mm 4 mps 744 mmHg 89%
06:00 +1°C° 0 mm 4 mps 745 mmHg 84%
07:00 +3°C° 0 mm 4 mps 745 mmHg 78%
08:00 +3°C° 0 mm 4 mps 746 mmHg 72%
09:00 +5°C° 0 mm 4 mps 746 mmHg 65%
10:00 +6°C° 0 mm 4 mps 746 mmHg 58%
11:00 +8°C° 0 mm 4 mps 747 mmHg 51%
12:00 +8°C° 0.1 mm 4 mps 747 mmHg 52%
13:00 +8°C° 0.1 mm 4 mps 747 mmHg 52%
14:00 +10°C° 0.1 mm 4 mps 747 mmHg 53%
15:00 +8°C° 0.3 mm 4 mps 747 mmHg 58%
16:00 +8°C° 0.3 mm 5 mps 748 mmHg 63%
17:00 +8°C° 0.3 mm 5 mps 748 mmHg 68%
18:00 +6°C° 0.3 mm 4 mps 748 mmHg 76%
19:00 +5°C° 0.3 mm 3 mps 749 mmHg 83%
20:00 +5°C° 0.3 mm 2 mps 749 mmHg 91%
21:00 +4°C° 0 mm 2 mps 749 mmHg 92%
22:00 +3°C° 0 mm 2 mps 750 mmHg 93%
23:00 +2°C° 0 mm 2 mps 750 mmHg 94%

Tomorrow, 9 May, Sunday

Time Temperature Precipitation Wind Pressure Humidity
00:00 +2°C° 0 mm 2 mps 750 mmHg 94%
01:00 +2°C° 0 mm 2 mps 751 mmHg 94%
02:00 +1°C° 0 mm 2 mps 751 mmHg 94%
03:00 +1°C° 0 mm 2 mps 751 mmHg 94%
04:00 +1°C° 0 mm 2 mps 751 mmHg 94%
05:00 +1°C° 0 mm 2 mps 752 mmHg 93%
06:00 +2°C° 0 mm 3 mps 752 mmHg 88%
07:00 +3°C° 0 mm 3 mps 752 mmHg 83%
08:00 +5°C° 0 mm 3 mps 752 mmHg 78%
09:00 +7°C° 0 mm 4 mps 752 mmHg 69%
10:00 +10°C° 0 mm 4 mps 752 mmHg 61%
11:00 +12°C° 0 mm 5 mps 752 mmHg 53%
12:00 +12°C° 0 mm 5 mps 752 mmHg 52%
13:00 +13°C° 0 mm 6 mps 751 mmHg 51%
14:00 +14°C° 0 mm 6 mps 751 mmHg 50%
15:00 +13°C° 0 mm 5 mps 751 mmHg 54%
16:00 +13°C° 0 mm 5 mps 751 mmHg 59%
17:00 +13°C° 0 mm 4 mps 751 mmHg 64%
18:00 +12°C° 0 mm 4 mps 751 mmHg 67%
19:00 +11°C° 0 mm 4 mps 751 mmHg 71%
20:00 +11°C° 0 mm 4 mps 751 mmHg 74%
21:00 +10°C° 0 mm 4 mps 751 mmHg 76%
22:00 +10°C° 0 mm 4 mps 751 mmHg 77%
23:00 +8°C° 0 mm 4 mps 751 mmHg 79%

Day after tomorrow, 10 May, Monday

Time Temperature Precipitation Wind Pressure Humidity
00:00 +8°C° 0 mm 4 mps 751 mmHg 81%
01:00 +7°C° 0 mm 4 mps 751 mmHg 82%
02:00 +7°C° 0 mm 4 mps 751 mmHg 84%
03:00 +6°C° 0 mm 4 mps 751 mmHg 85%
04:00 +6°C° 0 mm 4 mps 751 mmHg 87%
05:00 +6°C° 0 mm 4 mps 751 mmHg 89%
06:00 +8°C° 0 mm 5 mps 751 mmHg 83%
07:00 +10°C° 0 mm 5 mps 752 mmHg 77%
08:00 +11°C° 0 mm 6 mps 752 mmHg 71%
09:00 +14°C° 0 mm 6 mps 752 mmHg 65%
10:00 +16°C° 0 mm 7 mps 752 mmHg 60%
11:00 +17°C° 0 mm 7 mps 752 mmHg 55%
12:00 +18°C° 0 mm 7 mps 751 mmHg 54%
13:00 +20°C° 0 mm 7 mps 751 mmHg 54%
14:00 +20°C° 0 mm 7 mps 751 mmHg 53%
15:00 +20°C° 0 mm 7 mps 751 mmHg 56%
16:00 +20°C° 0 mm 7 mps 751 mmHg 58%
17:00 +20°C° 0 mm 7 mps 750 mmHg 60%
18:00 +17°C° 0 mm 6 mps 751 mmHg 65%
19:00 +16°C° 0 mm 6 mps 751 mmHg 69%
20:00 +15°C° 0 mm 5 mps 751 mmHg 73%
21:00 +14°C° 0 mm 5 mps 751 mmHg 75%
22:00 +13°C° 0 mm 6 mps 751 mmHg 76%
23:00 +13°C° 0 mm 6 mps 751 mmHg 78%

11 May, Tuesday

Time Temperature Precipitation Wind Pressure Humidity
00:00 +12°C° 0 mm 5 mps 751 mmHg 79%
01:00 +10°C° 0 mm 5 mps 751 mmHg 80%
02:00 +10°C° 0 mm 5 mps 751 mmHg 81%
03:00 +9°C° 0 mm 5 mps 751 mmHg 81%
04:00 +9°C° 0 mm 5 mps 751 mmHg 82%
05:00 +9°C° 0 mm 5 mps 750 mmHg 83%
06:00 +10°C° 0 mm 6 mps 750 mmHg 79%
07:00 +11°C° 0 mm 6 mps 750 mmHg 74%
08:00 +12°C° 0 mm 7 mps 751 mmHg 70%
09:00 +15°C° 0 mm 7 mps 750 mmHg 65%
10:00 +17°C° 0 mm 7 mps 750 mmHg 60%
11:00 +18°C° 0 mm 8 mps 750 mmHg 55%
12:00 +20°C° 0 mm 8 mps 750 mmHg 55%
13:00 +21°C° 0 mm 8 mps 750 mmHg 54%
14:00 +22°C° 0 mm 8 mps 750 mmHg 53%
15:00 +21°C° 0 mm 8 mps 750 mmHg 55%
16:00 +21°C° 0 mm 8 mps 750 mmHg 57%
17:00 +20°C° 0 mm 8 mps 749 mmHg 59%
18:00 +18°C° 0 mm 7 mps 749 mmHg 61%
19:00 +17°C° 0 mm 7 mps 749 mmHg 63%
20:00 +15°C° 0 mm 7 mps 749 mmHg 65%
21:00 +14°C° 0 mm 6 mps 749 mmHg 66%
22:00 +14°C° 0 mm 6 mps 749 mmHg 66%
23:00 +13°C° 0 mm 6 mps 749 mmHg 66%

12 May, Wednesday

Time Temperature Precipitation Wind Pressure Humidity
00:00 +12°C° 0 mm 5 mps 749 mmHg 68%
01:00 +10°C° 0 mm 5 mps 749 mmHg 70%
02:00 +10°C° 0 mm 5 mps 749 mmHg 72%
03:00 +9°C° 0 mm 5 mps 749 mmHg 74%
04:00 +9°C° 0 mm 5 mps 749 mmHg 75%
05:00 +8°C° 0 mm 5 mps 749 mmHg 77%
06:00 +10°C° 0 mm 6 mps 749 mmHg 75%
07:00 +11°C° 0 mm 6 mps 749 mmHg 73%
08:00 +14°C° 0 mm 6 mps 748 mmHg 71%
09:00 +16°C° 0 mm 7 mps 748 mmHg 67%
10:00 +17°C° 0 mm 7 mps 748 mmHg 63%
11:00 +20°C° 0 mm 8 mps 748 mmHg 59%
12:00 +21°C° 0 mm 8 mps 748 mmHg 58%
13:00 +21°C° 0 mm 7 mps 748 mmHg 56%
14:00 +22°C° 0 mm 7 mps 748 mmHg 55%
15:00 +22°C° 0 mm 7 mps 747 mmHg 57%
16:00 +22°C° 0 mm 7 mps 747 mmHg 60%
17:00 +22°C° 0 mm 6 mps 747 mmHg 62%
18:00 +20°C° 0 mm 6 mps 747 mmHg 66%
19:00 +19°C° 0 mm 6 mps 747 mmHg 70%
20:00 +16°C° 0 mm 6 mps 747 mmHg 74%
21:00 +15°C° 0 mm 6 mps 747 mmHg 78%
22:00 +14°C° 0 mm 6 mps 747 mmHg 81%
23:00 +13°C° 0 mm 6 mps 747 mmHg 85%

13 May, Thursday

Time Temperature Precipitation Wind Pressure Humidity
00:00 +12°C° 0 mm 5 mps 747 mmHg 86%
01:00 +10°C° 0 mm 5 mps 747 mmHg 87%
02:00 +9°C° 0 mm 5 mps 747 mmHg 88%
03:00 +8°C° 0 mm 4 mps 747 mmHg 90%
04:00 +8°C° 0 mm 4 mps 747 mmHg 93%
05:00 +8°C° 0 mm 3 mps 747 mmHg 96%
06:00 +10°C° 0 mm 4 mps 747 mmHg 88%
07:00 +11°C° 0 mm 4 mps 747 mmHg 80%
08:00 +13°C° 0 mm 5 mps 747 mmHg 72%
09:00 +14°C° 0 mm 5 mps 747 mmHg 66%
10:00 +15°C° 0 mm 5 mps 746 mmHg 60%
11:00 +17°C° 0 mm 5 mps 746 mmHg 54%
12:00 +18°C° 0 mm 4 mps 746 mmHg 56%
13:00 +18°C° 0 mm 4 mps 745 mmHg 58%
14:00 +18°C° 0 mm 3 mps 745 mmHg 60%
15:00 +18°C° 0.1 mm 3 mps 744 mmHg 60%
16:00 +18°C° 0.1 mm 2 mps 743 mmHg 61%
17:00 +18°C° 0.1 mm 2 mps 743 mmHg 61%
18:00 +17°C° 0.1 mm 2 mps 742 mmHg 69%
19:00 +16°C° 0.1 mm 2 mps 742 mmHg 77%
20:00 +14°C° 0.1 mm 2 mps 741 mmHg 85%
21:00 +14°C° 0 mm 2 mps 741 mmHg 87%
22:00 +13°C° 0 mm 2 mps 741 mmHg 90%
23:00 +13°C° 0 mm 2 mps 740 mmHg 92%
Show more